• In Österreich
  • Länderverzeichnis
  • Für 7 Tage
  • Wassertemperatur
  • Satellitenkarten
  • Wetterkarte
  • News
  • Widgets
  • user-avatar
    Anmelden

    Stündliche Wetter Algier

    Heute, 26 Mai, Samstag

    Zeit Temperatur Niederschläge Wind Luftdruck Luftfeuchtigkeit
    00:00 +20°C° 0 mm 2 m/S 747 mmHg 88%
    01:00 +20°C° 0 mm 1 m/S 746 mmHg 87%
    02:00 +20°C° 0 mm 1 m/S 746 mmHg 86%
    03:00 +20°C° 0 mm 1 m/S 746 mmHg 86%
    04:00 +19°C° 0 mm 0 m/S 746 mmHg 80%
    05:00 +20°C° 0 mm 0 m/S 746 mmHg 75%
    06:00 +21°C° 0 mm 0 m/S 746 mmHg 70%
    07:00 +25°C° 0 mm 1 m/S 746 mmHg 61%
    08:00 +27°C° 0 mm 1 m/S 746 mmHg 53%
    09:00 +29°C° 0 mm 2 m/S 746 mmHg 44%
    10:00 +30°C° 0 mm 2 m/S 746 mmHg 42%
    11:00 +31°C° 0 mm 3 m/S 746 mmHg 40%
    12:00 +33°C° 0 mm 3 m/S 746 mmHg 38%
    13:00 +31°C° 0 mm 3 m/S 746 mmHg 40%
    14:00 +31°C° 0 mm 3 m/S 746 mmHg 42%
    15:00 +30°C° 0 mm 3 m/S 746 mmHg 44%
    16:00 +28°C° 0 mm 2 m/S 746 mmHg 53%
    17:00 +26°C° 0 mm 2 m/S 746 mmHg 61%
    18:00 +24°C° 0 mm 2 m/S 746 mmHg 70%
    19:00 +24°C° 0 mm 2 m/S 746 mmHg 66%
    20:00 +25°C° 0 mm 2 m/S 746 mmHg 62%
    21:00 +25°C° 0 mm 1 m/S 747 mmHg 58%
    22:00 +25°C° 0 mm 1 m/S 747 mmHg 55%
    23:00 +25°C° 0 mm 2 m/S 747 mmHg 53%

    Morgen, 27 Mai, Sonntag

    Zeit Temperatur Niederschläge Wind Luftdruck Luftfeuchtigkeit
    00:00 +25°C° 0 mm 2 m/S 747 mmHg 50%
    01:00 +25°C° 0 mm 2 m/S 746 mmHg 51%
    02:00 +25°C° 0 mm 2 m/S 746 mmHg 53%
    03:00 +24°C° 0 mm 2 m/S 746 mmHg 54%
    04:00 +24°C° 0 mm 2 m/S 746 mmHg 54%
    05:00 +25°C° 0 mm 2 m/S 746 mmHg 54%
    06:00 +25°C° 0 mm 2 m/S 746 mmHg 54%
    07:00 +28°C° 0 mm 2 m/S 747 mmHg 48%
    08:00 +30°C° 0 mm 2 m/S 747 mmHg 42%
    09:00 +33°C° 0 mm 3 m/S 747 mmHg 36%
    10:00 +34°C° 0 mm 3 m/S 747 mmHg 35%
    11:00 +35°C° 0 mm 4 m/S 747 mmHg 33%
    12:00 +36°C° 0 mm 4 m/S 746 mmHg 32%
    13:00 +34°C° 0,1 mm 4 m/S 746 mmHg 39%
    14:00 +31°C° 0,1 mm 3 m/S 746 mmHg 45%
    15:00 +30°C° 0,1 mm 3 m/S 746 mmHg 52%
    16:00 +28°C° 1 mm 3 m/S 746 mmHg 60%
    17:00 +27°C° 1 mm 4 m/S 746 mmHg 68%
    18:00 +25°C° 1 mm 5 m/S 746 mmHg 76%
    19:00 +23°C° 0,9 mm 4 m/S 747 mmHg 80%
    20:00 +22°C° 0,9 mm 3 m/S 747 mmHg 85%
    21:00 +21°C° 0,9 mm 2 m/S 748 mmHg 89%
    22:00 +21°C° 1,4 mm 2 m/S 748 mmHg 90%
    23:00 +21°C° 1,4 mm 2 m/S 748 mmHg 91%

    übermorgen, 28 Mai, Montag

    Zeit Temperatur Niederschläge Wind Luftdruck Luftfeuchtigkeit
    00:00 +21°C° 1,4 mm 2 m/S 747 mmHg 91%
    01:00 +20°C° 1,4 mm 2 m/S 747 mmHg 92%
    02:00 +20°C° 1,4 mm 2 m/S 747 mmHg 92%
    03:00 +20°C° 1,4 mm 2 m/S 747 mmHg 93%
    04:00 +20°C° 0,5 mm 2 m/S 747 mmHg 93%
    05:00 +20°C° 0,5 mm 2 m/S 747 mmHg 93%
    06:00 +20°C° 0,5 mm 2 m/S 747 mmHg 93%
    07:00 +21°C° 0,3 mm 2 m/S 747 mmHg 91%
    08:00 +21°C° 0,3 mm 2 m/S 747 mmHg 89%
    09:00 +23°C° 0,3 mm 2 m/S 747 mmHg 87%
    10:00 +23°C° 0,2 mm 2 m/S 747 mmHg 86%
    11:00 +23°C° 0,2 mm 2 m/S 747 mmHg 85%
    12:00 +23°C° 0,2 mm 2 m/S 747 mmHg 84%
    13:00 +23°C° 0,3 mm 2 m/S 747 mmHg 82%
    14:00 +24°C° 0,3 mm 2 m/S 747 mmHg 80%
    15:00 +24°C° 0,3 mm 2 m/S 747 mmHg 77%
    16:00 +24°C° 0,1 mm 2 m/S 747 mmHg 79%
    17:00 +23°C° 0,1 mm 2 m/S 747 mmHg 80%
    18:00 +23°C° 0,1 mm 2 m/S 747 mmHg 82%
    19:00 +21°C° 0 mm 2 m/S 747 mmHg 85%
    20:00 +20°C° 0 mm 2 m/S 747 mmHg 88%
    21:00 +21°C° 0 mm 1 m/S 748 mmHg 92%
    22:00 +20°C° 0 mm 1 m/S 748 mmHg 92%
    23:00 +20°C° 0 mm 1 m/S 748 mmHg 93%

    29 Mai, Dienstag

    Zeit Temperatur Niederschläge Wind Luftdruck Luftfeuchtigkeit
    00:00 +20°C° 0 mm 1 m/S 748 mmHg 93%
    01:00 +19°C° 0 mm 1 m/S 747 mmHg 92%
    02:00 +19°C° 0 mm 1 m/S 747 mmHg 91%
    03:00 +19°C° 0 mm 1 m/S 747 mmHg 90%
    04:00 +20°C° 0 mm 1 m/S 747 mmHg 86%
    05:00 +20°C° 0 mm 1 m/S 747 mmHg 82%
    06:00 +21°C° 0 mm 1 m/S 747 mmHg 77%
    07:00 +22°C° 0 mm 1 m/S 747 mmHg 67%
    08:00 +24°C° 0 mm 1 m/S 747 mmHg 57%
    09:00 +26°C° 0 mm 1 m/S 747 mmHg 47%
    10:00 +26°C° 0 mm 2 m/S 747 mmHg 46%
    11:00 +27°C° 0 mm 2 m/S 747 mmHg 44%
    12:00 +28°C° 0 mm 3 m/S 747 mmHg 42%
    13:00 +27°C° 0 mm 3 m/S 746 mmHg 45%
    14:00 +27°C° 0 mm 3 m/S 746 mmHg 47%
    15:00 +27°C° 0 mm 3 m/S 746 mmHg 50%
    16:00 +26°C° 0 mm 3 m/S 746 mmHg 54%
    17:00 +25°C° 0 mm 3 m/S 746 mmHg 58%
    18:00 +24°C° 0 mm 2 m/S 746 mmHg 62%
    19:00 +23°C° 0 mm 2 m/S 746 mmHg 66%
    20:00 +21°C° 0 mm 2 m/S 747 mmHg 70%
    21:00 +21°C° 0 mm 1 m/S 747 mmHg 74%
    22:00 +21°C° 0 mm 1 m/S 747 mmHg 75%
    23:00 +20°C° 0 mm 1 m/S 747 mmHg 76%

    30 Mai, Mittwoch

    Zeit Temperatur Niederschläge Wind Luftdruck Luftfeuchtigkeit
    00:00 +20°C° 0 mm 1 m/S 746 mmHg 77%
    01:00 +20°C° 0 mm 1 m/S 746 mmHg 77%
    02:00 +20°C° 0 mm 1 m/S 746 mmHg 78%
    03:00 +19°C° 0 mm 1 m/S 746 mmHg 79%
    04:00 +20°C° 0,1 mm 1 m/S 746 mmHg 77%
    05:00 +21°C° 0,1 mm 1 m/S 746 mmHg 75%
    06:00 +20°C° 0,1 mm 2 m/S 746 mmHg 73%
    07:00 +23°C° 0,1 mm 2 m/S 747 mmHg 67%
    08:00 +24°C° 0,1 mm 2 m/S 747 mmHg 62%
    09:00 +25°C° 0,1 mm 2 m/S 747 mmHg 56%
    10:00 +26°C° 0 mm 3 m/S 747 mmHg 54%
    11:00 +27°C° 0 mm 4 m/S 747 mmHg 53%
    12:00 +27°C° 0 mm 5 m/S 747 mmHg 51%
    13:00 +27°C° 0,1 mm 5 m/S 747 mmHg 54%
    14:00 +26°C° 0,1 mm 5 m/S 747 mmHg 57%
    15:00 +26°C° 0,1 mm 5 m/S 747 mmHg 60%
    16:00 +25°C° 0,6 mm 4 m/S 747 mmHg 65%
    17:00 +22°C° 0,6 mm 3 m/S 747 mmHg 70%
    18:00 +21°C° 0,6 mm 3 m/S 747 mmHg 76%
    19:00 +21°C° 0,6 mm 2 m/S 748 mmHg 79%
    20:00 +20°C° 0,6 mm 2 m/S 748 mmHg 83%
    21:00 +19°C° 0,6 mm 2 m/S 748 mmHg 87%
    22:00 +19°C° 0,1 mm 2 m/S 748 mmHg 87%
    23:00 +20°C° 0,1 mm 1 m/S 748 mmHg 87%

    31 Mai, Donnerstag

    Zeit Temperatur Niederschläge Wind Luftdruck Luftfeuchtigkeit
    00:00 +20°C° 0,1 mm 1 m/S 748 mmHg 87%
    01:00 +19°C° 0 mm 1 m/S 748 mmHg 86%
    02:00 +19°C° 0 mm 1 m/S 748 mmHg 85%
    03:00 +19°C° 0 mm 1 m/S 748 mmHg 85%
    04:00 +20°C° 0 mm 1 m/S 748 mmHg 81%
    05:00 +21°C° 0 mm 1 m/S 749 mmHg 78%
    06:00 +21°C° 0 mm 1 m/S 749 mmHg 74%
    07:00 +23°C° 0 mm 1 m/S 749 mmHg 66%
    08:00 +24°C° 0 mm 1 m/S 749 mmHg 58%
    09:00 +26°C° 0 mm 1 m/S 749 mmHg 50%
    10:00 +27°C° 0 mm 2 m/S 749 mmHg 48%
    11:00 +28°C° 0 mm 2 m/S 749 mmHg 45%
    12:00 +28°C° 0 mm 3 m/S 749 mmHg 42%
    13:00 +28°C° 0 mm 3 m/S 749 mmHg 44%
    14:00 +28°C° 0 mm 3 m/S 749 mmHg 46%
    15:00 +28°C° 0 mm 3 m/S 749 mmHg 48%
    16:00 +27°C° 0 mm 2 m/S 749 mmHg 51%
    17:00 +26°C° 0 mm 2 m/S 749 mmHg 55%
    18:00 +25°C° 0 mm 2 m/S 749 mmHg 58%
    19:00 +24°C° 0 mm 2 m/S 750 mmHg 62%
    20:00 +22°C° 0 mm 1 m/S 750 mmHg 65%
    21:00 +21°C° 0 mm 1 m/S 751 mmHg 68%
    22:00 +21°C° 0 mm 1 m/S 751 mmHg 68%
    23:00 +21°C° 0 mm 1 m/S 751 mmHg 67%
    Mehr zeigen